Gwinn, MI

11:33 PM EST on January 22, 2018 (GMT -0500)
Sawyer International

Weather History for KSAW - October, 2013

Change the Weather History Date:

Tuesday, October 1, 2013

  Actual Average (KESC) Record (KESC)
Temperature  
Mean Temperature 65 °F -  
Max Temperature 77 °F 59 °F 78 °F (2002)
Min Temperature 53 °F 43 °F 28 °F (2003)
Growing Degree Days 15 (Base 50)    
Moisture  
Dew Point 47 °F    
Average Humidity 66    
Maximum Humidity 83    
Minimum Humidity 24    
Precipitation  
Precipitation 0.00 in - - ()
Sea Level Pressure  
Sea Level Pressure 29.76 in    
Wind  
Wind Speed 11 mph (SW)    
Max Wind Speed 23 mph    
Max Gust Speed 29 mph    
Visibility 10 miles    
Events      
Averages and records for this station are not official NWS values.
T = Trace of Precipitation, MM = Missing Value Source: NWS Daily Summary

Daily Weather History Graph

Daily Weather History Graph

Search for Another Location

Airport or City:

Trip Planner

Search our weather history database for the weather conditions in past years. The results will help you decide how hot, cold, wet, or windy it might be!

Date:

Astronomy

Oct. 01, 2013 Rise Set
Actual Time 7:48 AM EDT 7:29 PM EDT
Civil Twilight 7:18 AM EDT 7:58 PM EDT
Nautical Twilight 6:43 AM EDT 8:33 PM EDT
Astronomical Twilight 6:08 AM EDT 9:09 PM EDT
Moon 4:12 AM EDT (10/1) 5:40 PM EDT (10/1)
Length of Visible Light 12h 40m
Length of Day
11h 40m
Waning Crescent, 12% of the Moon is Illuminated
Oct 1
Waning Crescent
Oct 4
New
Oct 11
First Quarter
Oct 18
Full
Oct 26
Last Quarter

Hourly Weather History & Observations

Time (EDT) Temp. Dew Point Humidity Pressure Visibility Wind Dir Wind Speed Gust Speed Precip Events Conditions
12:17 AM 56.7 °F 48.7 °F 75% 29.78 in 10.0 mi SSW 12.7 mph - N/A   Clear
12:37 AM 56.5 °F 49.1 °F 76% 29.79 in 10.0 mi SSW 11.5 mph 16.1 mph N/A   Clear
12:56 AM 56.3 °F 49.1 °F 77% 29.77 in 10.0 mi SSW 11.5 mph - N/A   Clear
1:17 AM 56.3 °F 49.1 °F 77% 29.77 in 10.0 mi South 10.4 mph - N/A   Clear
1:37 AM 55.9 °F 49.1 °F 78% 29.77 in 10.0 mi South 10.4 mph - N/A   Clear
1:56 AM 55.8 °F 49.3 °F 79% 29.77 in 10.0 mi South 11.5 mph - N/A   Clear
2:17 AM 55.8 °F 49.5 °F 79% 29.77 in 10.0 mi South 13.8 mph - N/A   Clear
2:36 AM 55.4 °F 49.3 °F 80% 29.77 in 10.0 mi South 9.2 mph - N/A   Clear
2:56 AM 55.0 °F 49.5 °F 81% 29.77 in 10.0 mi South 9.2 mph - N/A   Clear
3:17 AM 55.2 °F 49.6 °F 81% 29.76 in 10.0 mi South 10.4 mph - N/A   Clear
3:36 AM 55.0 °F 49.6 °F 82% 29.75 in 10.0 mi South 10.4 mph - N/A   Clear
3:57 AM 54.9 °F 49.6 °F 83% 29.74 in 10.0 mi South 10.4 mph - N/A   Clear
4:16 AM 54.7 °F 49.6 °F 83% 29.75 in 10.0 mi South 9.2 mph - N/A   Clear
4:36 AM 54.7 °F 49.6 °F 83% 29.74 in 10.0 mi SSW 10.4 mph - N/A   Clear
4:57 AM 54.7 °F 49.6 °F 83% 29.73 in 10.0 mi South 10.4 mph - N/A   Clear
5:16 AM 54.7 °F 49.6 °F 83% 29.74 in 10.0 mi South 10.4 mph - N/A   Clear
5:37 AM 54.7 °F 49.6 °F 83% 29.73 in 10.0 mi South 9.2 mph - N/A   Scattered Clouds
5:57 AM 54.5 °F 49.3 °F 83% 29.73 in 10.0 mi SSW 8.1 mph - N/A   Clear
6:55 AM 53.6 °F 48.2 °F 82% 29.72 in 10.0 mi SSW 11.5 mph - N/A   Scattered Clouds
7:50 AM 53.6 °F 48.2 °F 82% 29.71 in 10.0 mi SSW 9.2 mph - N/A   Clear
8:50 AM 53.6 °F 48.2 °F 82% 29.69 in 10.0 mi SSW 10.4 mph - N/A   Clear
9:50 AM 59.0 °F 51.8 °F 77% 29.69 in 10.0 mi SW 11.5 mph - N/A   Clear
10:55 AM 62.6 °F 53.6 °F 72% 29.67 in 10.0 mi SSW 16.1 mph - N/A   Clear
11:50 AM 66.2 °F 53.6 °F 64% 29.67 in 10.0 mi SW 23.0 mph 28.8 mph N/A   Clear
12:50 PM 69.8 °F 55.4 °F 60% 29.87 in 10.0 mi WSW 19.6 mph 25.3 mph N/A   Clear
1:50 PM 73.4 °F 55.4 °F 53% 29.67 in 10.0 mi WSW 17.3 mph 27.6 mph N/A   Clear
2:50 PM 75.2 °F 55.4 °F 50% 29.68 in 10.0 mi WSW 20.7 mph 25.3 mph N/A   Clear
3:50 PM 77.0 °F 51.8 °F 41% 29.69 in 10.0 mi West 11.5 mph 26.5 mph N/A   Scattered Clouds
5:50 PM 77.0 °F 37.4 °F 24% 29.73 in 10.0 mi West 9.2 mph - N/A   Clear
6:50 PM 73.4 °F 37.4 °F 27% 29.75 in 10.0 mi West 11.5 mph - N/A   Clear
7:55 PM 66.2 °F 37.4 °F 35% 29.77 in 10.0 mi WNW 3.5 mph - N/A   Clear
8:50 PM 62.6 °F 37.4 °F 39% 29.80 in 10.0 mi Calm Calm - N/A   Clear
9:50 PM 60.8 °F 37.4 °F 42% 29.82 in 10.0 mi WSW 5.8 mph - N/A   Clear
10:17 PM 58.1 °F 38.3 °F 48% 29.82 in 10.0 mi West 5.8 mph - N/A   Clear
10:36 PM 57.0 °F 37.8 °F 49% 29.83 in 10.0 mi WSW 5.8 mph - N/A   Clear
10:57 PM 57.2 °F 37.6 °F 48% 29.84 in 10.0 mi SW 3.5 mph - N/A   Clear
11:16 PM 57.2 °F 37.0 °F 47% 29.84 in 10.0 mi West 4.6 mph - N/A   Clear
11:37 PM 56.3 °F 36.3 °F 47% 29.85 in 10.0 mi WSW 5.8 mph - N/A   Clear
11:57 PM 55.6 °F 35.6 °F 47% 29.86 in 10.0 mi WSW 5.8 mph - N/A   Clear